Lid_Strength_Index
9 9 10 8 8 10 10 9 10 8 9 7 6 6 6 6 5 5 5 5 4 4 4 3 3 2 2 1 1 1 1 1 1 1 0 0 0 0 0 0 0 0 0 0
10 8 9 10 9 9 10 9 8 8 9 5 5 6 6 6 6 6 5 5 4 4 3 3 3 3 2 2 2 1 1 1 1 1 1 1 1 0 0 0 0 0 1 0
12 9 9 11 9 8 8 8 8 10 7 6 6 6 6 6 6 6 5 5 4 4 4 3 3 2 2 2 1 1 2 1 1 1 1 1 1 1 1 1 0 1 1 1
12 11 15 8 7 7 8 7 7 7 6 6 5 5 5 4 5 5 5 5 4 4 3 3 2 2 2 1 2 2 2 2 1 1 1 1 1 1 1 1 1 1 1 1
13 13 10 9 8 8 9 9 6 7 6 6 5 5 5 4 4 4 4 4 3 3 3 2 2 2 2 2 2 2 2 2 1 1 1 1 2 2 1 1 1 1 1 1
12 14 16 9 8 6 7 11 7 6 6 6 6 8 6 4 3 3 3 3 3 3 2 2 2 2 2 2 2 2 2 2 1 1 1 1 1 1 1 1 1 1 1 1
12 13 11 8 7 6 12 10 7 7 6 6 7 6 5 4 4 3 3 3 2 2 3 2 2 2 2 2 2 1 1 1 1 1 1 1 1 1 1 1 1 1 2 3
11 13 15 7 8 10 8 6 6 6 6 6 6 5 4 4 4 4 4 3 3 3 3 2 1 2 2 2 1 1 1 1 1 1 1 1 1 1 1 1 1 2 2 2
10 10 8 6 7 6 5 6 6 6 5 5 5 5 5 5 4 4 3 3 3 3 3 2 2 1 2 2 1 1 1 1 1 1 1 1 1 1 2 2 2 2 2 2
10 8 7 6 5 5 5 5 4 4 4 4 5 5 5 4 4 4 3 3 3 3 3 3 2 1 1 1 1 1 2 1 1 1 1 1 1 1 2 2 2 2 2 3
9 7 7 6 5 5 4 4 4 4 4 4 4 5 4 4 4 4 3 3 3 3 3 3 2 2 1 1 1 2 2 1 1 1 2 3 6 6 3 5 4 2 2 1
10 6 7 6 4 4 4 4 4 4 4 3 4 4 4 4 4 3 3 3 3 3 2 2 2 2 1 1 1 1 2 2 2 2 2 2 2 3 10 10 11 12 12 6
7 4 4 4 3 3 4 4 3 3 3 4 3 3 3 4 3 4 3 3 3 3 3 2 2 2 1 1 1 1 2 2 2 2 2 2 2 2 3 6 11 12 13 12
4 4 6 4 5 3 3 3 3 3 3 3 3 3 3 4 3 3 3 3 2 2 3 2 2 2 1 1 1 1 1 4 1 1 2 2 2 2 1 2 2 2 9 10
4 4 4 3 3 3 3 3 4 4 4 3 3 3 3 4 4 4 3 2 3 3 3 2 2 2 1 1 1 1 1 1 1 1 1 2 1 1 1 1 1 2 4 7
4 4 4 4 4 4 4 4 4 4 3 3 3 3 3 3 3 3 3 2 3 4 3 2 2 1 1 1 1 1 1 2 2 1 1 1 1 1 1 1 1 1 1 1
6 6 5 5 5 4 4 3 3 3 3 3 3 3 3 3 3 3 3 2 2 2 2 2 2 1 0 0 1 1 1 1 2 1 1 1 1 2 1 1 1 1 1 1
4 4 4 4 4 4 4 3 3 3 3 3 2 3 3 4 4 3 3 2 2 2 2 1 1 1 1 0 0 1 1 1 1 1 1 1 1 1 1 1 1 1 1 1
4 4 4 4 4 4 3 3 3 3 3 3 3 3 3 3 3 3 2 3 3 4 2 1 1 1 1 1 1 1 1 1 1 1 1 2 1 1 1 1 1 1 1 1
4 4 4 4 3 3 4 3 2 3 2 3 3 3 4 3 2 3 2 3 3 2 1 1 1 1 1 1 1 1 1 1 1 1 1 1 1 1 1 4 1 1 1 1
4 4 4 4 4 3 3 2 2 3 3 3 3 3 3 3 2 2 3 4 2 2 1 2 1 1 1 1 1 1 1 1 1 1 1 1 1 1 1 1 1 1 1 1
4 4 4 4 4 3 3 2 3 3 3 3 3 3 3 3 3 3 2 3 2 6 1 1 1 1 1 1 1 1 1 1 1 1 1 1 1 1 1 1 1 1 1 0
4 4 4 4 4 4 3 3 3 3 3 3 3 3 3 3 3 4 4 2 1 4 1 1 2 3 3 1 1 1 1 1 1 1 1 1 1 1 1 1 1 0 0 0
4 4 4 3 3 4 4 3 3 2 2 2 2 2 3 4 4 2 2 4 5 4 1 1 2 4 4 1 1 1 1 1 1 1 0 6 0 0 0 1 1 0 0 1
4 3 3 4 4 4 3 3 3 3 3 3 2 2 3 2 2 2 2 2 6 2 1 5 5 5 1 1 1 1 1 1 1 1 1 1 1 0 0 0 0 0 0 0
4 4 4 4 4 4 3 3 4 4 3 3 3 3 3 1 1 1 1 3 1 2 1 1 1 1 1 1 1 1 1 0 1 1 1 0 0 1 0 0 0 0 0 -0
4 6 4 4 3 3 3 3 4 4 3 3 4 2 2 1 2 2 3 1 1 1 1 1 1 1 0 0 0 0 0 1 3 0 0 1 2 2 2 2 2 2 2 3